Regional Weather Roundup
Issued by NWS Northern Indiana

Home | Current Version | Previous Version | Graphics & Text | Print | Product List | Glossary On
Versions: 1 2 3 4 5 6 7 8 9 10 11 12 13 14 15 16 17 18 19 20 21 22 23 24 25 26 27 28 29 30 31 32 33 34 35 36 37 38 39 40 41 42 43 44 45 46 47 48 49 50
000
ASUS43 KIWX 250610
RWRIWX

KIWX WEATHER ROUNDUP
NATIONAL WEATHER SERVICE NORTHERN INDIANA
200 AM EDT THU MAY 25 2017

NOTE: "FAIR" INDICATES FEW OR NO CLOUDS BELOW 12,000 FEET WITH NO
SIGNIFICANT WEATHER AND/OR OBSTRUCTIONS TO VISIBILITY.

* THESE STATIONS ARE NOT UNDER NWS QUALITY CONTROL. THEY ALSO MAY NOT
  REPORT WEATHER SUCH AS PRECIPITATION OR FOG.

INZ001>027-250700-
NORTHERN INDIANA

CITY           SKY/WX    TMP DP  RH WIND       PRES   REMARKS
GARY*          CLOUDY    52  50  93 NW17      29.54S
VALPARAISO     CLOUDY    52  50  93 NW9       29.50F FOG
6HR MIN TEMP:  51; 6HR MAX TEMP:  53; 6HR PCP:  0.01;

MICHIGAN CITY* CLOUDY    50  50 100 N6        29.51F
LAPORTE*       CLOUDY    55  53  95 N14       29.50S FOG
6HR MIN TEMP:  52; 6HR MAX TEMP:  56; 6HR PCP:  0.01;

KNOX*          CLOUDY    55  55 100 NW14      29.47F
SOUTH BEND     CLOUDY    57  57 100 N10       29.47F FOG
6HR MIN TEMP:  57; 6HR MAX TEMP:  58; 6HR PCP: TRACE;

GOSHEN         CLOUDY    59  56  89 N14       29.44S
6HR MIN TEMP:  59; 6HR MAX TEMP:  60; 6HR PCP:  0.24;

MONTICELLO*    DRIZZLE   53  52  95 NW15      29.46F
6HR MIN TEMP:  53; 6HR MAX TEMP:  58; 6HR PCP:  0.02;

LOGANSPORT*    DRIZZLE   54  54 100 NW10G16   29.43F
ROCHESTER*     CLOUDY   N/A N/A N/A N12       29.43F FOG
WARSAW*        LGT RAIN  59  57  94 N10       29.42F
ANGOLA*        CLOUDY    57  46  67 NE9       29.43F
FORT WAYNE     RAIN      59  57  93 NE13      29.38S
6HR MIN TEMP:  59; 6HR MAX TEMP:  59; 6HR PCP:  0.51;

HUNTINGTON*    RAIN     N/A N/A N/A N10G16    29.37S
                                      6HR PCP:  0.36;

PERU/GRISSOM   LGT RAIN  59  59 100 NW15      29.39F FOG
6HR MIN TEMP:  58; 6HR MAX TEMP:  59; 6HR PCP:  0.08;

MARION*        LGT RAIN  57  55  94 N7        29.37F

$$
INZ028>050-250700-
CENTRAL INDIANA

CITY           SKY/WX    TMP DP  RH WIND       PRES   REMARKS
LAFAYETTE      LGT RAIN  53  53 100 NW15      29.47F FOG
6HR MIN TEMP:  53; 6HR MAX TEMP:  59; 6HR PCP:  0.01;

KOKOMO*        LGT RAIN  58  57  97 NW13G21   29.40F
6HR MIN TEMP:  58; 6HR MAX TEMP:  59; 6HR PCP:  0.27;

MUNCIE*        RAIN      60  57  89 W6        29.36F FOG
6HR MIN TEMP:  59; 6HR MAX TEMP:  61;

INDIANAPOLIS   RAIN      57  56  96 W15       29.42F FOG
6HR MIN TEMP:  57; 6HR MAX TEMP:  60; 6HR PCP:  0.07;


$$
MIZ043>046-050>051-056>058-064>065-071>073-077>080-250700-
SOUTHWEST LOWER MICHIGAN

CITY           SKY/WX    TMP DP  RH WIND       PRES   REMARKS
BATTLE CREEK   LGT RAIN  57  56  96 NE12      29.48F FOG
6HR MIN TEMP:  57; 6HR MAX TEMP:  61; 6HR PCP:  0.16;

BENTON HARBOR  CLOUDY    57  54  89 CALM      29.50S FOG
6HR MIN TEMP:  56; 6HR MAX TEMP:  60; 6HR PCP:  0.02;

HOLLAND        LGT RAIN  59  54  83 VRB7      29.53F
6HR MIN TEMP:  59; 6HR MAX TEMP:  61; 6HR PCP:  0.01;

GRAND RAPIDS   RAIN      56  56 100 N10       29.53S FOG
6HR MIN TEMP:  56; 6HR MAX TEMP:  60; 6HR PCP:  0.04;

KALAMAZOO      CLOUDY    58  54  86 NE9       29.48F
6HR MIN TEMP:  58; 6HR MAX TEMP:  61; 6HR PCP:  0.12;


$$
OHZ001>008-015>018-024>025-250700-
NORTHWEST OHIO

CITY           SKY/WX    TMP DP  RH WIND       PRES   REMARKS
WAUSEON*       CLOUDY    59  59 100 NE16      29.42F
DEFIANCE       CLOUDY    59  58  96 E10       29.40F
6HR MIN TEMP:  58; 6HR MAX TEMP:  59; 6HR PCP:  0.11;

FINDLAY        CLOUDY    64  58  80 E8        29.38F
6HR MIN TEMP:  63; 6HR MAX TEMP:  65; 6HR PCP: TRACE;

TOLEDO EXPRESS LGT RAIN  59  59 100 NE13      29.42F
6HR MIN TEMP:  58; 6HR MAX TEMP:  59; 6HR PCP:  0.01;

TOLEDO METCALF CLOUDY    61  59  93 NE12      29.43F
6HR MIN TEMP:  60; 6HR MAX TEMP:  62; 6HR PCP:  0.16;

LIMA           CLOUDY    61  59  93 SE8       29.37S
6HR MIN TEMP:  60; 6HR MAX TEMP:  64; 6HR PCP:  0.18;


$$
AND FOR LAKE MICHIGAN COASTAL AND OPEN LAKE BUOY OBSERVATIONS

STATION/POSITION TEMP    WIND        PRES    VSBY  WAVE
                 AIR SEA DIR/SP/G                  HT/PER
                 (F)     (DEG/KT/KT) (MB)    (MI)  (FT/S)
CALUMET HARBOR    52     330/ 10/ 14 1000.1F
MICHIGAN CITY     50     340/ 20/ 22   N/A
BURNS HARBOR      49     340/ 17/ 21 1000.3S
SOUTH LAKE BUOY   47 45  360/ 10/ 12 1000.7F         3/ 6
4 MI NW BRIDGMAN  55 56   20/ 16/ 19  999.3          5/ 5
MICHIGAN CITY     50 53  350/ 16/ 21   N/A           5/ 6

$$
&&




USA.gov is the U.S. government's official web portal to all federal, state and local government web resources and services.